{"data":{"norad_id":57062,"intl_designator":"2023-088Q","name":"STARLINK-5536","alt_names":[],"object_type":"PAYLOAD","status":"ACTIVE","operator":null,"country":"US","launch_date":"2023-06-22","launch_site_code":"AFWTR","launch_vehicle":null,"mission":null,"orbit_class":"UNKNOWN","rcs_meters":null,"size_class":null,"mass_kg":null,"dimensions":null,"purposes":["comms"],"wikipedia_slug":null,"has_3d_model":false,"image_url":null,"decayed_at":null,"tle_current":{"epoch":"2026-09-20T21:23:46.674816Z","epoch_age_seconds":87176,"freshness":"FRESH","line1":"1 57062U 23088Q   26263.89151244 -.00000115  00000+0  53675-5 0  9992","line2":"2 57062  43.0016  73.7350 0001698 255.2186 104.8478 15.27576714180358","mean_motion":15.27576714,"eccentricity":0.0001698,"inclination_deg":43.0016,"raan_deg":73.735,"arg_perigee_deg":255.2186,"mean_anomaly_deg":104.8478,"bstar":5.3675e-6,"rev_number":18035,"period_min":94.266951492689,"perigee_km":481.89390445357,"apogee_km":484.22396659328,"semimajor_km":6861.1959355234,"source":"CELESTRAK","updated_at":"2026-09-21T09:00:33.550725Z"}}}